{"data":{"norad_id":57144,"epoch":"2026-05-25T04:10:07.844160Z","epoch_age_seconds":53296,"freshness":"FRESH","line1":"1 57144U 23090AV  26145.17370190  .00000189  00000+0  16398-4 0  9999","line2":"2 57144  43.0032 191.1438 0001244 273.9307  86.1402 15.27577027162052","mean_motion":15.27577027,"eccentricity":0.0001244,"inclination_deg":43.0032,"raan_deg":191.1438,"arg_perigee_deg":273.9307,"mean_anomaly_deg":86.1402,"bstar":1.6398e-5,"rev_number":16205,"period_min":94.266932177424,"perigee_km":482.20446562784,"apogee_km":483.91153094341,"semimajor_km":6861.1949982856,"source":"CELESTRAK","updated_at":"2026-05-25T13:38:18.248380Z"}}